SCP
0 0 0 0 0 0 0 0 0 0 0 0 0 0 0 0 0 0 0 -0 -0 -0 -0 0 0 0 0 0 0 0 0 0 0 0 0 0 0 0
0 0 0 0 0 0 0 0 0 0 0 0 0 0 0 0 0 0 -0 -0 -0 0 0 0 -0 -0 0 0 0 0 0 0 0 0 0 0 0 0
0 0 0 0 0 0 0 0 0 0 0 0 0 0 0 0 0 -0 -0 -0 0 0 -0 -0 -0 0 0 0 0 0 0 0 0 0 0 0 0 0
0 0 0 0 0 0 0 0 0 0 0 0 0 0 0 0 0 0 0 0 0 -0 -0 -0 0 0 0 0 0 0 0 0 0 0 0 0 0 0
0 0 0 0 0 0 0 0 0 0 0 0 0 0 0 0 0 0 0 0 0 0 -0 0 0 0 0 0 0 0 0 0 0 0 0 0 0 0
0 0 0 0 0 0 0 0 0 0 0 -0 -0 -0 0 0 0 0 -0 0 0 0 0 0 0 0 0 0 0 0 0 0 0 0 0 0 0 0
0 0 0 0 0 0 0 0 0 0 0 0 0 0 0 0 0 0 0 0 -0 0 0 0 0 0 0 0 0 0 0 0 0 0 0 0 0 0
0 0 0 0 0 0 0 0 0 0 0 0 0 0 0 -0 -0 0 0 0 0 0 0 0 0 0 0 0 0 0 0 0 0 0 0 0 0 0
0 0 0 -0 0 0 0 0 0 0 0 0 0 0 0 -0 0 0 0 0 0 0 0 0 0 0 0 0 0 0 0 0 0 0 0 0 0 0
-0 -0 -0 -0 0 0 0 0 0 0 0 0 -0 0 0 0 0 0 0 0 0 0 0 0 0 0 0 0 0 0 0 0 0 0 0 0 0 0
-0 -0 -0 -0 0 0 0 0 0 0 0 0 -0 0 0 0 0 0 0 0 0 0 0 0 0 0 0 0 0 0 0 0 0 0 0 0 0 0
-0 -0 -0 -0 -0 -0 0 0 0 -0 -0 -0 -0 -0 0 0 0 0 0 0 0 0 0 0 0 0 0 0 0 0 0 0 0 0 0 0 0 0
-0 -0 -0 0 0 0 0 0 -0 -0 0 0 0 0 0 0 0 0 0 0 0 0 0 0 0 0 0 0 0 0 0 0 0 0 0 0 0 0
0 0 0 0 -0 -0 -0 0 0 0 0 0 0 0 0 0 0 0 0 0 0 0 0 0 0 0 0 0 0 0 0 0 0 0 0 0 0 0
0 0 -0 -0 -0 -0 0 0 0 0 0 0 0 0 0 0 0 0 0 0 0 0 0 0 0 0 0 0 0 0 0 0 0 0 0 0 0 0
-0 -0 -0 0 0 0 0 0 0 0 0 0 0 0 0 0 0 0 0 0 0 0 0 0 0 0 0 0 0 0 0 0 0 0 0 0 0 0
-0 0 0 0 0 0 0 0 0 0 0 0 0 0 0 0 0 0 0 0 0 0 0 0 0 0 0 0 0 0 0 0 0 0 0 0 0 0
0 0 0 0 0 0 0 0 0 0 0 0 0 0 0 0 0 0 0 0 0 0 0 0 0 -0 0 0 0 0 0 0 0 0 0 0 0 0
0 0 0 0 0 0 0 0 0 0 0 0 0 0 0 0 0 0 0 0 0 0 0 0 0 0 0 0 0 0 0 0 0 0 0 0 0 0
0 0 0 0 0 0 0 0 0 0 0 0 0 0 0 0 0 0 0 0 0 0 0 0 0 0 0 0 0 0 0 0 0 0 0 0 0 0
0 0 0 0 0 0 0 0 0 0 0 0 0 0 0 0 0 0 0 0 0 0 0 0 0 0 0 0 0 0 0 0 0 0 0 0 0 0
0 0 0 0 0 0 0 0 0 0 0 0 0 0 0 0 0 0 0 0 0 0 0 0 0 0 0 0 0 0 0 0 0 0 0 0 0 0
0 0 0 0 0 0 0 0 0 0 0 0 0 0 0 0 0 0 0 0 0 0 0 0 0 0 0 0 0 0 0 0 0 0 0 0 0 0
Wind_Speed_500mb
43 43 44 42 57 43 50 63 68 41 51 44 55 49 63 69 60 37 21 14 14 15 17 21 17 18 20 21 21 23 26 27 28 32 32 32 31 33
41 38 36 39 39 43 43 64 56 54 25 69 54 60 63 64 59 47 25 22 19 19 20 21 21 22 23 23 25 28 30 32 35 36 36 38 39 40
40 31 34 39 48 43 47 51 43 40 51 51 50 46 49 51 52 43 30 25 24 22 23 23 24 25 24 26 29 32 35 37 42 44 44 46 46 47
31 25 39 53 47 46 48 43 47 44 46 51 43 32 33 41 41 37 32 29 24 22 22 24 26 26 27 32 36 40 43 47 50 53 53 54 53 55
32 33 48 58 53 40 53 53 44 43 38 33 32 29 33 37 32 32 31 22 20 22 22 24 25 28 33 39 44 48 52 55 57 60 60 62 62 63
34 34 39 48 51 52 48 34 27 33 38 35 30 35 33 29 22 33 29 25 20 23 23 24 28 34 38 38 44 47 49 49 49 52 52 54 57 61
28 35 37 60 60 50 35 25 28 42 37 32 36 43 41 38 30 24 24 22 21 26 30 31 32 34 35 41 46 46 47 46 49 51 54 55 56 58
37 41 61 56 45 36 31 33 23 25 32 35 34 31 26 21 19 16 16 20 23 13 28 33 39 49 48 51 52 57 59 60 57 54 60 65 68 67
54 64 57 53 40 33 33 33 30 26 13 12 17 12 9 10 1 9 14 23 26 28 39 46 46 55 52 54 52 57 60 52 47 47 56 72 70 75
60 53 46 42 38 35 27 30 27 25 27 21 20 16 17 20 18 17 20 28 29 30 39 43 43 47 45 37 36 38 37 44 51 62 73 77 68 69
46 44 42 41 35 27 29 35 34 33 32 25 21 22 17 17 20 26 31 35 38 36 36 34 41 47 47 52 42 44 48 56 56 54 53 55 55 52
35 35 35 33 34 33 32 31 30 28 26 24 20 14 11 11 18 20 21 22 22 22 18 32 40 41 39 31 43 49 45 39 48 55 57 47 46 52
37 40 37 35 30 29 29 29 30 28 23 17 12 10 8 9 10 11 14 13 16 19 25 26 32 36 36 46 47 50 52 55 58 53 53 52 60 62
33 35 33 34 35 34 33 28 20 18 15 8 12 16 17 14 11 13 16 17 13 13 25 26 21 27 33 43 51 52 51 54 47 52 52 60 68 70
30 32 34 36 36 33 29 24 21 19 15 18 24 17 10 10 14 17 13 10 16 30 15 12 19 25 35 40 44 47 60 59 49 66 69 65 69 68
36 39 40 37 33 32 26 25 22 22 25 25 19 14 14 14 15 16 16 18 12 1 10 23 28 31 32 34 46 55 58 61 65 67 71 70 70 56
41 42 44 43 39 36 31 25 24 28 31 21 12 6 12 17 11 6 5 4 11 14 20 19 25 30 34 40 43 47 57 62 65 69 73 78 71 62
50 46 45 41 37 31 33 39 38 32 23 17 10 7 10 5 6 2 7 9 8 8 17 29 36 41 42 41 43 53 56 62 63 63 64 66 65 50
48 43 39 34 29 35 30 33 35 30 26 20 15 14 13 12 15 13 4 4 9 14 20 25 34 42 50 55 55 52 56 55 57 59 60 58 57 50
56 49 43 38 39 42 42 48 41 35 29 25 20 18 20 22 14 12 12 10 12 13 16 28 41 49 51 57 63 59 40 57 56 58 61 59 58 54
59 56 52 46 43 44 54 54 41 33 31 28 21 25 25 23 22 14 8 5 7 19 28 34 43 46 48 50 60 65 62 54 50 51 58 63 69 74
59 63 57 51 51 57 59 50 38 35 30 28 33 31 28 23 17 11 6 6 14 19 26 33 42 51 56 59 60 66 74 70 55 53 45 46 56 60
64 64 56 55 58 64 57 48 44 39 37 42 36 35 29 26 17 8 5 6 12 24 31 37 46 53 55 56 58 68 71 67 71 73 66 52 48 41
Wind_Direction_500mb
173 171 182 175 175 185 176 174 161 142 157 169 166 180 172 174 187 197 200 206 220 225 231 231 226 242 254 259 264 271 275 285 294 295 299 300 299 293
157 153 161 168 172 178 186 179 171 165 137 170 167 164 177 184 192 199 214 227 232 233 238 232 239 251 258 268 275 279 283 287 286 290 294 296 294 292
152 159 167 166 158 156 169 179 175 174 163 154 168 177 182 187 197 202 220 236 235 231 229 240 254 265 273 280 283 284 287 287 289 290 292 291 292 290
126 140 157 153 152 153 148 147 167 163 147 150 158 169 183 184 199 219 224 222 220 221 238 254 267 274 280 284 290 293 290 290 288 287 287 287 289 289
129 124 146 152 146 143 149 145 141 154 162 159 160 164 168 185 198 207 212 215 223 232 249 251 258 276 289 295 295 294 292 289 291 292 291 289 288 289
139 128 140 154 147 142 142 139 143 147 157 169 177 181 185 185 198 203 209 222 238 246 255 272 285 293 298 300 303 299 296 300 302 303 306 304 300 296
151 145 146 144 139 134 129 141 159 176 167 176 182 183 191 193 199 209 221 244 259 274 284 288 298 299 298 299 302 311 312 312 311 313 312 307 303 298
169 157 162 157 152 150 143 150 156 164 167 170 160 170 179 182 194 213 240 255 268 271 298 302 298 298 303 306 319 317 318 311 308 310 316 312 308 300
145 144 153 169 165 159 152 148 167 174 152 119 103 115 110 79 181 241 269 274 285 295 277 288 300 304 315 310 308 303 300 294 292 297 302 299 300 302
154 158 152 157 155 154 154 161 162 175 180 195 213 229 245 240 247 263 274 276 271 274 283 294 298 299 302 310 322 319 310 303 303 295 294 297 291 288
146 156 161 158 153 159 170 175 180 185 192 196 192 201 227 249 249 252 259 270 283 289 288 292 289 291 292 306 312 311 304 306 302 303 303 306 302 298
150 159 163 162 165 169 172 180 181 186 197 200 204 216 243 262 265 266 275 285 287 301 305 317 325 330 322 304 317 326 327 329 333 330 327 326 324 318
166 171 170 174 174 172 170 170 173 169 172 182 203 221 225 239 252 272 273 280 289 300 311 314 317 326 330 331 333 335 339 336 331 326 325 321 318 317
181 179 177 176 177 175 178 175 178 190 203 206 214 214 223 251 301 298 284 285 291 305 313 321 335 318 321 325 333 334 327 325 318 317 317 314 311 312
179 177 173 170 174 176 179 188 207 218 227 217 212 214 229 259 272 284 278 267 304 316 340 353 331 318 322 329 330 330 325 324 314 312 314 314 313 313
166 172 174 179 184 194 199 213 227 229 223 217 211 225 244 253 263 281 290 296 307 66 332 318 321 327 333 332 324 317 318 327 325 327 326 325 325 320
179 183 187 193 201 206 212 216 212 208 199 197 190 248 259 284 274 276 272 101 49 4 341 347 2 355 343 335 336 336 334 333 332 330 329 329 331 338
192 198 197 201 210 210 204 197 210 211 201 194 205 289 294 237 273 178 93 57 11 7 356 358 353 351 354 357 352 340 332 331 333 333 331 332 336 351
204 207 209 211 204 197 217 228 226 221 220 223 257 253 225 235 161 133 137 136 60 23 357 349 349 351 349 341 340 340 330 340 342 344 346 345 348 350
218 218 218 213 220 232 237 237 228 222 224 232 222 225 183 162 147 159 128 78 40 22 12 2 358 353 342 332 329 340 347 347 344 339 338 337 339 336
220 219 215 218 226 230 228 219 212 210 204 204 204 177 166 159 164 148 108 70 39 20 9 359 356 351 347 346 350 352 357 4 358 346 338 334 336 335
221 220 219 224 222 224 219 210 203 195 199 185 175 174 171 169 161 152 147 49 9 2 358 350 351 354 357 0 357 355 351 348 347 348 344 341 336 330
221 224 227 231 229 224 220 211 203 199 187 181 176 176 174 169 164 150 77 28 356 355 351 351 353 352 357 355 354 351 349 345 338 336 340 347 343 338
Wind_Speed_850mb
43 43 44 42 57 43 50 63 68 41 51 44 55 49 63 69 60 37 21 14 14 15 17 21 17 18 20 21 21 23 26 27 28 32 32 32 31 33
41 38 36 39 39 43 43 64 56 54 25 69 54 60 63 64 59 47 25 22 19 19 20 21 21 22 23 23 25 28 30 32 35 36 36 38 39 40
40 31 34 39 48 43 47 51 43 40 51 51 50 46 49 51 52 43 30 25 24 22 23 23 24 25 24 26 29 32 35 37 42 44 44 46 46 47
31 25 39 53 47 46 48 43 47 44 46 51 43 32 33 41 41 37 32 29 24 22 22 24 26 26 27 32 36 40 43 47 50 53 53 54 53 55
32 33 48 58 53 40 53 53 44 43 38 33 32 29 33 37 32 32 31 22 20 22 22 24 25 28 33 39 44 48 52 55 57 60 60 62 62 63
34 34 39 48 51 52 48 34 27 33 38 35 30 35 33 29 22 33 29 25 20 23 23 24 28 34 38 38 44 47 49 49 49 52 52 54 57 61
28 35 37 60 60 50 35 25 28 42 37 32 36 43 41 38 30 24 24 22 21 26 30 31 32 34 35 41 46 46 47 46 49 51 54 55 56 58
37 41 61 56 45 36 31 33 23 25 32 35 34 31 26 21 19 16 16 20 23 13 28 33 39 49 48 51 52 57 59 60 57 54 60 65 68 67
54 64 57 53 40 33 33 33 30 26 13 12 17 12 9 10 1 9 14 23 26 28 39 46 46 55 52 54 52 57 60 52 47 47 56 72 70 75
60 53 46 42 38 35 27 30 27 25 27 21 20 16 17 20 18 17 20 28 29 30 39 43 43 47 45 37 36 38 37 44 51 62 73 77 68 69
46 44 42 41 35 27 29 35 34 33 32 25 21 22 17 17 20 26 31 35 38 36 36 34 41 47 47 52 42 44 48 56 56 54 53 55 55 52
35 35 35 33 34 33 32 31 30 28 26 24 20 14 11 11 18 20 21 22 22 22 18 32 40 41 39 31 43 49 45 39 48 55 57 47 46 52
37 40 37 35 30 29 29 29 30 28 23 17 12 10 8 9 10 11 14 13 16 19 25 26 32 36 36 46 47 50 52 55 58 53 53 52 60 62
33 35 33 34 35 34 33 28 20 18 15 8 12 16 17 14 11 13 16 17 13 13 25 26 21 27 33 43 51 52 51 54 47 52 52 60 68 70
30 32 34 36 36 33 29 24 21 19 15 18 24 17 10 10 14 17 13 10 16 30 15 12 19 25 35 40 44 47 60 59 49 66 69 65 69 68
36 39 40 37 33 32 26 25 22 22 25 25 19 14 14 14 15 16 16 18 12 1 10 23 28 31 32 34 46 55 58 61 65 67 71 70 70 56
41 42 44 43 39 36 31 25 24 28 31 21 12 6 12 17 11 6 5 4 11 14 20 19 25 30 34 40 43 47 57 62 65 69 73 78 71 62
50 46 45 41 37 31 33 39 38 32 23 17 10 7 10 5 6 2 7 9 8 8 17 29 36 41 42 41 43 53 56 62 63 63 64 66 65 50
48 43 39 34 29 35 30 33 35 30 26 20 15 14 13 12 15 13 4 4 9 14 20 25 34 42 50 55 55 52 56 55 57 59 60 58 57 50
56 49 43 38 39 42 42 48 41 35 29 25 20 18 20 22 14 12 12 10 12 13 16 28 41 49 51 57 63 59 40 57 56 58 61 59 58 54
59 56 52 46 43 44 54 54 41 33 31 28 21 25 25 23 22 14 8 5 7 19 28 34 43 46 48 50 60 65 62 54 50 51 58 63 69 74
59 63 57 51 51 57 59 50 38 35 30 28 33 31 28 23 17 11 6 6 14 19 26 33 42 51 56 59 60 66 74 70 55 53 45 46 56 60
64 64 56 55 58 64 57 48 44 39 37 42 36 35 29 26 17 8 5 6 12 24 31 37 46 53 55 56 58 68 71 67 71 73 66 52 48 41
Wind_Direction_850mb
173 171 182 175 175 185 176 174 161 142 157 169 166 180 172 174 187 197 200 206 220 225 231 231 226 242 254 259 264 271 275 285 294 295 299 300 299 293
157 153 161 168 172 178 186 179 171 165 137 170 167 164 177 184 192 199 214 227 232 233 238 232 239 251 258 268 275 279 283 287 286 290 294 296 294 292
152 159 167 166 158 156 169 179 175 174 163 154 168 177 182 187 197 202 220 236 235 231 229 240 254 265 273 280 283 284 287 287 289 290 292 291 292 290
126 140 157 153 152 153 148 147 167 163 147 150 158 169 183 184 199 219 224 222 220 221 238 254 267 274 280 284 290 293 290 290 288 287 287 287 289 289
129 124 146 152 146 143 149 145 141 154 162 159 160 164 168 185 198 207 212 215 223 232 249 251 258 276 289 295 295 294 292 289 291 292 291 289 288 289
139 128 140 154 147 142 142 139 143 147 157 169 177 181 185 185 198 203 209 222 238 246 255 272 285 293 298 300 303 299 296 300 302 303 306 304 300 296
151 145 146 144 139 134 129 141 159 176 167 176 182 183 191 193 199 209 221 244 259 274 284 288 298 299 298 299 302 311 312 312 311 313 312 307 303 298
169 157 162 157 152 150 143 150 156 164 167 170 160 170 179 182 194 213 240 255 268 271 298 302 298 298 303 306 319 317 318 311 308 310 316 312 308 300
145 144 153 169 165 159 152 148 167 174 152 119 103 115 110 79 181 241 269 274 285 295 277 288 300 304 315 310 308 303 300 294 292 297 302 299 300 302
154 158 152 157 155 154 154 161 162 175 180 195 213 229 245 240 247 263 274 276 271 274 283 294 298 299 302 310 322 319 310 303 303 295 294 297 291 288
146 156 161 158 153 159 170 175 180 185 192 196 192 201 227 249 249 252 259 270 283 289 288 292 289 291 292 306 312 311 304 306 302 303 303 306 302 298
150 159 163 162 165 169 172 180 181 186 197 200 204 216 243 262 265 266 275 285 287 301 305 317 325 330 322 304 317 326 327 329 333 330 327 326 324 318
166 171 170 174 174 172 170 170 173 169 172 182 203 221 225 239 252 272 273 280 289 300 311 314 317 326 330 331 333 335 339 336 331 326 325 321 318 317
181 179 177 176 177 175 178 175 178 190 203 206 214 214 223 251 301 298 284 285 291 305 313 321 335 318 321 325 333 334 327 325 318 317 317 314 311 312
179 177 173 170 174 176 179 188 207 218 227 217 212 214 229 259 272 284 278 267 304 316 340 353 331 318 322 329 330 330 325 324 314 312 314 314 313 313
166 172 174 179 184 194 199 213 227 229 223 217 211 225 244 253 263 281 290 296 307 66 332 318 321 327 333 332 324 317 318 327 325 327 326 325 325 320
179 183 187 193 201 206 212 216 212 208 199 197 190 248 259 284 274 276 272 101 49 4 341 347 2 355 343 335 336 336 334 333 332 330 329 329 331 338
192 198 197 201 210 210 204 197 210 211 201 194 205 289 294 237 273 178 93 57 11 7 356 358 353 351 354 357 352 340 332 331 333 333 331 332 336 351
204 207 209 211 204 197 217 228 226 221 220 223 257 253 225 235 161 133 137 136 60 23 357 349 349 351 349 341 340 340 330 340 342 344 346 345 348 350
218 218 218 213 220 232 237 237 228 222 224 232 222 225 183 162 147 159 128 78 40 22 12 2 358 353 342 332 329 340 347 347 344 339 338 337 339 336
220 219 215 218 226 230 228 219 212 210 204 204 204 177 166 159 164 148 108 70 39 20 9 359 356 351 347 346 350 352 357 4 358 346 338 334 336 335
221 220 219 224 222 224 219 210 203 195 199 185 175 174 171 169 161 152 147 49 9 2 358 350 351 354 357 0 357 355 351 348 347 348 344 341 336 330
221 224 227 231 229 224 220 211 203 199 187 181 176 176 174 169 164 150 77 28 356 355 351 351 353 352 357 355 354 351 349 345 338 336 340 347 343 338